Time,TemperatureF,DewpointF,PressureIn,WindDirection,WindDirectionDegrees,WindSpeedMPH,WindSpeedGustMPH,Humidity,HourlyPrecipIn,Conditions,Clouds,dailyrainin,SoftwareType,DateUTC
2013-02-02 00:02:00,30.0,27.0,27.67,South,184,9.0,12.0,88,0.00,,,0.01,,2013-02-02 07:02:00,
2013-02-02 00:11:00,30.0,27.0,27.67,South,184,9.0,12.0,88,0.00,,,0.01,,2013-02-02 07:11:00,
2013-02-02 00:21:00,30.0,27.0,27.68,South,176,9.0,13.0,88,0.00,,,0.01,,2013-02-02 07:21:00,
2013-02-02 00:31:00,30.0,27.0,27.68,SSW,199,9.0,12.0,88,0.00,,,0.01,,2013-02-02 07:31:00,
2013-02-02 00:42:00,30.0,27.0,27.68,SSW,199,9.0,12.0,88,0.00,,,0.01,,2013-02-02 07:42:00,
2013-02-02 00:51:00,29.0,26.0,27.67,South,177,11.0,15.0,89,0.00,,,0.01,,2013-02-02 07:51:00,
2013-02-02 01:01:00,29.0,26.0,27.67,South,171,10.0,13.0,88,0.00,,,0.01,,2013-02-02 08:01:00,
2013-02-02 01:11:00,29.0,26.0,27.67,South,171,10.0,13.0,88,0.00,,,0.01,,2013-02-02 08:11:00,
2013-02-02 01:21:00,29.0,26.0,27.67,South,171,11.0,14.0,89,0.00,,,0.01,,2013-02-02 08:21:00,
2013-02-02 01:31:00,29.0,26.0,27.67,South,180,10.0,13.0,88,0.00,,,0.01,,2013-02-02 08:31:00,
2013-02-02 01:41:00,29.0,26.0,27.67,South,180,10.0,13.0,88,0.00,,,0.01,,2013-02-02 08:41:00,
2013-02-02 01:52:00,29.0,26.0,27.67,South,173,9.0,14.0,87,0.00,,,0.01,,2013-02-02 08:52:00,
2013-02-02 02:01:00,29.0,26.0,27.67,South,169,10.0,15.0,87,0.00,,,0.01,,2013-02-02 09:01:00,
2013-02-02 02:11:00,29.0,26.0,27.67,South,169,10.0,15.0,87,0.00,,,0.01,,2013-02-02 09:11:00,
2013-02-02 02:22:00,29.0,25.0,27.68,SSW,196,6.0,10.0,86,0.00,,,0.01,,2013-02-02 09:22:00,
2013-02-02 02:31:00,29.0,25.0,27.68,SSW,204,7.0,9.0,85,0.00,,,0.01,,2013-02-02 09:31:00,
2013-02-02 02:41:00,29.0,25.0,27.68,SSW,204,7.0,9.0,85,0.00,,,0.01,,2013-02-02 09:41:00,
2013-02-02 02:52:00,30.0,26.0,27.69,SSW,196,6.0,8.0,85,0.00,,,0.01,,2013-02-02 09:52:00,
2013-02-02 03:01:00,30.0,26.0,27.68,SW,217,4.0,8.0,84,0.00,,,0.01,,2013-02-02 10:01:00,
2013-02-02 03:11:00,30.0,26.0,27.68,SW,217,4.0,8.0,84,0.00,,,0.01,,2013-02-02 10:11:00,
2013-02-02 03:21:00,31.0,26.0,27.69,SW,223,2.0,6.0,83,0.00,,,0.01,,2013-02-02 10:21:00,
2013-02-02 03:32:00,31.0,26.0,27.69,WSW,245,1.0,5.0,82,0.00,,,0.01,,2013-02-02 10:32:00,
2013-02-02 03:42:00,31.0,26.0,27.69,WSW,245,1.0,5.0,82,0.00,,,0.01,,2013-02-02 10:42:00,
2013-02-02 03:52:00,31.0,26.0,27.68,SW,227,4.0,8.0,81,0.00,,,0.01,,2013-02-02 10:52:00,
2013-02-02 04:01:00,32.0,27.0,27.68,SW,233,2.0,6.0,80,0.00,,,0.01,,2013-02-02 11:01:00,
2013-02-02 04:11:00,32.0,27.0,27.68,SW,233,2.0,6.0,80,0.00,,,0.01,,2013-02-02 11:11:00,
2013-02-02 04:21:00,32.0,26.0,27.68,West,277,6.0,10.0,79,0.00,,,0.01,,2013-02-02 11:21:00,
2013-02-02 04:32:00,32.0,26.0,27.68,West,262,7.0,11.0,78,0.00,,,0.01,,2013-02-02 11:32:00,
2013-02-02 04:42:00,32.0,26.0,27.68,West,262,7.0,11.0,78,0.00,,,0.01,,2013-02-02 11:42:00,
2013-02-02 04:52:00,33.0,27.0,27.68,West,281,6.0,13.0,77,0.00,,,0.01,,2013-02-02 11:52:00,
2013-02-02 05:01:00,33.0,26.0,27.67,WSW,240,6.0,13.0,76,0.00,,,0.01,,2013-02-02 12:01:00,
2013-02-02 05:11:00,33.0,26.0,27.67,WSW,240,6.0,13.0,76,0.00,,,0.01,,2013-02-02 12:11:00,
2013-02-02 05:22:00,33.0,26.0,27.67,West,262,8.0,13.0,76,0.00,,,0.01,,2013-02-02 12:22:00,
2013-02-02 05:32:00,34.0,27.0,27.67,WNW,289,9.0,15.0,76,0.00,,,0.01,,2013-02-02 12:32:00,
2013-02-02 05:42:00,34.0,27.0,27.67,WNW,289,9.0,15.0,76,0.00,,,0.01,,2013-02-02 12:42:00,
2013-02-02 05:52:00,34.0,26.0,27.66,West,267,10.0,21.0,73,0.01,,,0.02,,2013-02-02 12:52:00,
2013-02-02 06:03:00,35.0,27.0,27.66,WSW,238,10.0,19.0,72,0.01,,,0.02,,2013-02-02 13:03:00,
2013-02-02 06:11:00,35.0,27.0,27.66,WSW,238,10.0,19.0,72,0.01,,,0.02,,2013-02-02 13:11:00,
2013-02-02 06:21:00,35.0,27.0,27.65,SW,236,13.0,24.0,71,0.01,,,0.02,,2013-02-02 13:21:00,
2013-02-02 06:32:00,35.0,27.0,27.65,West,263,7.0,20.0,71,0.01,,,0.02,,2013-02-02 13:32:00,
2013-02-02 06:42:00,35.0,27.0,27.65,West,263,7.0,20.0,71,0.01,,,0.02,,2013-02-02 13:42:00,
2013-02-02 06:52:00,34.0,25.0,27.64,WSW,237,13.0,20.0,69,0.00,,,0.02,,2013-02-02 13:52:00,
2013-02-02 07:02:00,35.0,25.0,27.64,WSW,253,13.0,22.0,67,0.00,,,0.02,,2013-02-02 14:02:00,
2013-02-02 07:11:00,35.0,25.0,27.64,WSW,253,13.0,22.0,67,0.00,,,0.02,,2013-02-02 14:11:00,
2013-02-02 07:22:00,36.0,25.0,27.66,WSW,252,13.0,21.0,65,0.00,,,0.02,,2013-02-02 14:22:00,
2013-02-02 07:32:00,36.0,25.0,27.66,SW,219,13.0,24.0,65,0.00,,,0.02,,2013-02-02 14:32:00,
2013-02-02 07:42:00,36.0,25.0,27.66,SW,219,13.0,24.0,65,0.00,,,0.02,,2013-02-02 14:42:00,
2013-02-02 07:52:00,36.0,25.0,27.66,WNW,300,14.0,27.0,65,0.00,,,0.02,,2013-02-02 14:52:00,
2013-02-02 08:03:00,36.0,25.0,27.67,WNW,284,13.0,23.0,64,0.00,,,0.02,,2013-02-02 15:03:00,
2013-02-02 08:12:00,36.0,25.0,27.67,WNW,284,13.0,23.0,64,0.00,,,0.02,,2013-02-02 15:12:00,
2013-02-02 08:22:00,36.0,25.0,27.69,WSW,254,12.0,25.0,65,0.00,,,0.02,,2013-02-02 15:22:00,
2013-02-02 08:32:00,35.0,25.0,27.70,WSW,245,13.0,21.0,67,0.00,,,0.02,,2013-02-02 15:32:00,
2013-02-02 08:42:00,35.0,25.0,27.70,WSW,245,13.0,21.0,67,0.00,,,0.02,,2013-02-02 15:42:00,
2013-02-02 08:52:00,36.0,26.0,27.70,SW,236,12.0,23.0,67,0.00,,,0.02,,2013-02-02 15:52:00,
2013-02-02 09:03:00,36.0,26.0,27.70,West,275,13.0,23.0,66,0.00,,,0.02,,2013-02-02 16:03:00,
2013-02-02 09:11:00,36.0,26.0,27.70,West,275,13.0,23.0,66,0.00,,,0.02,,2013-02-02 16:11:00,
2013-02-02 09:22:00,36.0,26.0,27.71,WNW,297,17.0,25.0,66,0.00,,,0.02,,2013-02-02 16:22:00,
2013-02-02 09:32:00,36.0,26.0,27.71,WSW,258,13.0,22.0,66,0.00,,,0.02,,2013-02-02 16:32:00,
2013-02-02 09:42:00,36.0,26.0,27.71,WSW,258,13.0,22.0,66,0.00,,,0.02,,2013-02-02 16:42:00,
2013-02-02 09:52:00,36.0,26.0,27.71,WSW,238,13.0,23.0,67,0.00,,,0.02,,2013-02-02 16:52:00,
2013-02-02 10:02:00,36.0,26.0,27.72,WSW,245,12.0,19.0,68,0.00,,,0.02,,2013-02-02 17:02:00,
2013-02-02 10:11:00,36.0,26.0,27.72,WSW,245,12.0,19.0,68,0.00,,,0.02,,2013-02-02 17:11:00,
2013-02-02 10:22:00,36.0,26.0,27.72,SW,233,12.0,18.0,68,0.00,,,0.02,,2013-02-02 17:22:00,
2013-02-02 10:32:00,37.0,27.0,27.72,WSW,248,12.0,20.0,67,0.00,,,0.02,,2013-02-02 17:32:00,
2013-02-02 10:42:00,37.0,27.0,27.72,WSW,248,12.0,20.0,67,0.00,,,0.02,,2013-02-02 17:42:00,
2013-02-02 10:52:00,38.0,28.0,27.72,West,281,14.0,24.0,66,0.00,,,0.02,,2013-02-02 17:52:00,
2013-02-02 11:02:00,38.0,28.0,27.73,WSW,241,12.0,24.0,67,0.00,,,0.02,,2013-02-02 18:02:00,
2013-02-02 11:12:00,38.0,28.0,27.73,WSW,241,12.0,24.0,67,0.00,,,0.02,,2013-02-02 18:12:00,
2013-02-02 11:22:00,38.0,28.0,27.73,WSW,237,13.0,29.0,66,0.00,,,0.02,,2013-02-02 18:22:00,
2013-02-02 11:32:00,38.0,28.0,27.75,WSW,258,11.0,24.0,67,0.00,,,0.01,,2013-02-02 18:32:00,
2013-02-02 11:42:00,38.0,28.0,27.75,WSW,258,11.0,24.0,67,0.00,,,0.01,,2013-02-02 18:42:00,
2013-02-02 11:52:00,39.0,28.0,27.76,WNW,282,19.0,32.0,65,0.00,,,0.01,,2013-02-02 18:52:00,
2013-02-02 12:02:00,39.0,29.0,27.76,West,269,16.0,27.0,66,0.00,,,0.01,,2013-02-02 19:02:00,
2013-02-02 12:12:00,39.0,29.0,27.76,West,269,16.0,27.0,66,0.00,,,0.01,,2013-02-02 19:12:00,
2013-02-02 12:21:00,39.0,28.0,27.76,WNW,288,19.0,37.0,64,0.00,,,0.01,,2013-02-02 19:21:00,
2013-02-02 12:32:00,39.0,28.0,27.76,WNW,285,18.0,26.0,65,0.00,,,0.01,,2013-02-02 19:32:00,
2013-02-02 12:42:00,39.0,28.0,27.76,WNW,285,18.0,26.0,65,0.00,,,0.01,,2013-02-02 19:42:00,
2013-02-02 12:51:00,39.0,29.0,27.76,WNW,284,16.0,27.0,66,0.00,,,0.01,,2013-02-02 19:51:00,
2013-02-02 13:01:00,39.0,29.0,27.77,WNW,286,16.0,26.0,67,0.00,,,0.01,,2013-02-02 20:01:00,
2013-02-02 13:11:00,39.0,29.0,27.77,WNW,286,16.0,26.0,67,0.00,,,0.01,,2013-02-02 20:11:00,
2013-02-02 13:21:00,39.0,29.0,27.77,WNW,282,13.0,19.0,68,0.00,,,0.01,,2013-02-02 20:21:00,
2013-02-02 13:32:00,39.0,30.0,27.77,West,276,6.0,20.0,69,0.00,,,0.01,,2013-02-02 20:32:00,
2013-02-02 13:42:00,39.0,30.0,27.77,West,276,6.0,20.0,69,0.00,,,0.01,,2013-02-02 20:42:00,
2013-02-02 13:52:00,39.0,30.0,27.78,West,280,9.0,16.0,69,0.00,,,0.01,,2013-02-02 20:52:00,
2013-02-02 14:02:00,39.0,30.0,27.78,WNW,283,9.0,16.0,69,0.00,,,0.01,,2013-02-02 21:02:00,
2013-02-02 14:11:00,39.0,30.0,27.78,WNW,283,9.0,16.0,69,0.00,,,0.01,,2013-02-02 21:11:00,
2013-02-02 14:21:00,39.0,30.0,27.78,West,274,7.0,16.0,70,0.00,,,0.01,,2013-02-02 21:21:00,
2013-02-02 14:32:00,39.0,30.0,27.78,West,265,5.0,14.0,71,0.00,,,0.01,,2013-02-02 21:32:00,
2013-02-02 14:42:00,39.0,30.0,27.78,West,265,5.0,14.0,71,0.00,,,0.01,,2013-02-02 21:42:00,
2013-02-02 14:52:00,39.0,30.0,27.78,WNW,289,10.0,19.0,70,0.00,,,0.01,,2013-02-02 21:52:00,
2013-02-02 15:02:00,39.0,30.0,27.78,WNW,289,10.0,19.0,70,0.00,,,0.01,,2013-02-02 22:02:00,
2013-02-02 15:11:00,39.0,30.0,27.78,WNW,289,10.0,19.0,70,0.00,,,0.01,,2013-02-02 22:11:00,
2013-02-02 15:21:00,39.0,30.0,27.79,West,274,6.0,20.0,71,0.00,,,0.01,,2013-02-02 22:21:00,
2013-02-02 15:32:00,39.0,29.0,27.79,WNW,282,12.0,19.0,66,0.00,,,0.01,,2013-02-02 22:32:00,
2013-02-02 15:42:00,39.0,29.0,27.79,WNW,282,12.0,19.0,66,0.00,,,0.01,,2013-02-02 22:42:00,
2013-02-02 15:52:00,39.0,29.0,27.80,West,263,10.0,21.0,68,0.00,,,0.01,,2013-02-02 22:52:00,
2013-02-02 16:02:00,39.0,30.0,27.80,WNW,292,7.0,12.0,69,0.00,,,0.01,,2013-02-02 23:02:00,
2013-02-02 16:11:00,39.0,30.0,27.80,WNW,292,7.0,12.0,69,0.00,,,0.01,,2013-02-02 23:11:00,
2013-02-02 16:21:00,38.0,29.0,27.80,West,281,2.0,8.0,70,0.00,,,0.01,,2013-02-02 23:21:00,
2013-02-02 16:32:00,38.0,29.0,27.80,WNW,292,2.0,5.0,71,0.00,,,0.01,,2013-02-02 23:32:00,
2013-02-02 16:42:00,38.0,29.0,27.80,WNW,292,2.0,5.0,71,0.00,,,0.01,,2013-02-02 23:42:00,
2013-02-02 16:52:00,38.0,29.0,27.80,WNW,291,0.0,4.0,71,0.00,,,0.01,,2013-02-02 23:52:00,
2013-02-02 17:02:00,38.0,29.0,27.79,WNW,291,0.0,0.0,70,0.00,,,0.01,,2013-02-03 00:02:00,
2013-02-02 17:11:00,38.0,29.0,27.79,WNW,291,0.0,0.0,70,0.00,,,0.01,,2013-02-03 00:11:00,
2013-02-02 17:22:00,38.0,29.0,27.79,WNW,291,0.0,0.0,71,0.00,,,0.01,,2013-02-03 00:22:00,
2013-02-02 17:32:00,37.0,29.0,27.79,WNW,291,0.0,0.0,72,0.00,,,0.01,,2013-02-03 00:32:00,
2013-02-02 17:41:00,37.0,29.0,27.79,WNW,291,0.0,0.0,72,0.00,,,0.01,,2013-02-03 00:41:00,
2013-02-02 17:51:00,37.0,28.0,27.78,WNW,291,0.0,0.0,71,0.00,,,0.01,,2013-02-03 00:51:00,
2013-02-02 18:02:00,36.0,29.0,27.77,WNW,291,1.0,4.0,75,0.00,,,0.01,,2013-02-03 01:02:00,
2013-02-02 18:11:00,36.0,29.0,27.77,WNW,291,1.0,4.0,75,0.00,,,0.01,,2013-02-03 01:11:00,
2013-02-02 18:21:00,34.0,29.0,27.77,WNW,291,0.0,0.0,81,0.00,,,0.01,,2013-02-03 01:21:00,
2013-02-02 18:32:00,33.0,28.0,27.77,SSW,197,2.0,4.0,82,0.00,,,0.01,,2013-02-03 01:32:00,
2013-02-02 18:42:00,33.0,28.0,27.77,SSW,197,2.0,4.0,82,0.00,,,0.01,,2013-02-03 01:42:00,
2013-02-02 18:52:00,34.0,29.0,27.77,SSW,196,7.0,11.0,82,0.00,,,0.01,,2013-02-03 01:52:00,
2013-02-02 19:01:00,35.0,29.0,27.76,SSW,203,6.0,9.0,77,0.00,,,0.01,,2013-02-03 02:01:00,
2013-02-02 19:11:00,35.0,29.0,27.76,SSW,203,6.0,9.0,77,0.00,,,0.01,,2013-02-03 02:11:00,
2013-02-02 19:21:00,34.0,28.0,27.76,SSW,200,5.0,8.0,79,0.00,,,0.01,,2013-02-03 02:21:00,
2013-02-02 19:32:00,33.0,27.0,27.76,South,187,0.0,8.0,79,0.00,,,0.01,,2013-02-03 02:32:00,
2013-02-02 19:42:00,33.0,27.0,27.76,South,187,0.0,8.0,79,0.00,,,0.01,,2013-02-03 02:42:00,
2013-02-02 19:52:00,34.0,28.0,27.75,SSW,194,5.0,7.0,78,0.00,,,0.01,,2013-02-03 02:52:00,
2013-02-02 20:02:00,34.0,27.0,27.75,SSW,200,4.0,8.0,76,0.00,,,0.01,,2013-02-03 03:02:00,
2013-02-02 20:11:00,34.0,27.0,27.75,SSW,200,4.0,8.0,76,0.00,,,0.01,,2013-02-03 03:11:00,
2013-02-02 20:21:00,33.0,27.0,27.74,South,177,6.0,10.0,78,0.00,,,0.01,,2013-02-03 03:21:00,
2013-02-02 20:31:00,33.0,27.0,27.73,South,186,8.0,14.0,79,0.00,,,0.01,,2013-02-03 03:31:00,
2013-02-02 20:42:00,33.0,27.0,27.73,South,186,8.0,14.0,79,0.00,,,0.01,,2013-02-03 03:42:00,
2013-02-02 20:51:00,32.0,27.0,27.73,SSW,193,4.0,6.0,81,0.00,,,0.01,,2013-02-03 03:51:00,
2013-02-02 21:01:00,32.0,27.0,27.73,South,177,6.0,9.0,82,0.00,,,0.01,,2013-02-03 04:01:00,
2013-02-02 21:11:00,32.0,27.0,27.73,South,177,6.0,9.0,82,0.00,,,0.01,,2013-02-03 04:11:00,
2013-02-02 21:21:00,32.0,27.0,27.72,South,178,9.0,14.0,82,0.00,,,0.01,,2013-02-03 04:21:00,
2013-02-02 21:32:00,32.0,27.0,27.72,South,189,11.0,14.0,81,0.00,,,0.01,,2013-02-03 04:32:00,
2013-02-02 21:42:00,32.0,27.0,27.72,South,189,11.0,14.0,81,0.00,,,0.01,,2013-02-03 04:42:00,
2013-02-02 21:52:00,32.0,27.0,27.71,South,182,10.0,13.0,80,0.00,,,0.01,,2013-02-03 04:52:00,
2013-02-02 22:03:00,32.0,26.0,27.71,South,176,11.0,14.0,79,0.00,,,0.01,,2013-02-03 05:03:00,
2013-02-02 22:11:00,32.0,26.0,27.71,South,176,11.0,14.0,79,0.00,,,0.01,,2013-02-03 05:11:00,
2013-02-02 22:22:00,32.0,26.0,27.70,South,182,8.0,12.0,79,0.00,,,0.01,,2013-02-03 05:22:00,
2013-02-02 22:32:00,32.0,26.0,27.69,South,188,6.0,12.0,79,0.00,,,0.01,,2013-02-03 05:32:00,
2013-02-02 22:42:00,32.0,26.0,27.69,South,188,6.0,12.0,79,0.00,,,0.01,,2013-02-03 05:42:00,
2013-02-02 22:52:00,31.0,26.0,27.69,SSW,193,8.0,10.0,81,0.00,,,0.01,,2013-02-03 05:52:00,
2013-02-02 23:02:00,31.0,26.0,27.68,SSE,163,10.0,14.0,80,0.00,,,0.01,,2013-02-03 06:02:00,
2013-02-02 23:11:00,31.0,26.0,27.68,SSE,163,10.0,14.0,80,0.00,,,0.01,,2013-02-03 06:11:00,
2013-02-02 23:21:00,32.0,26.0,27.67,South,170,11.0,14.0,79,0.00,,,0.01,,2013-02-03 06:21:00,
2013-02-02 23:32:00,31.0,25.0,27.66,South,171,10.0,14.0,79,0.00,,,0.01,,2013-02-03 06:32:00,
2013-02-02 23:41:00,31.0,25.0,27.66,South,171,10.0,14.0,79,0.00,,,0.01,,2013-02-03 06:41:00,
2013-02-02 23:52:00,32.0,26.0,27.66,South,177,10.0,16.0,77,0.00,,,0.01,,2013-02-03 06:52:00,